Regional Weather Roundup
Issued by NWS Little Rock, AR

Home | Current Version | Previous Version | Text Only | Print | Product List | Glossary Off
Versions: 1 2 3 4 5 6 7 8 9 10 11 12 13 14 15 16 17 18 19 20 21 22 23 24 25 26 27 28 29 30 31 32

000
ASUS44 KLZK 252305
RWRLZK

WEATHER ROUNDUP FOR ARKANSAS
NATIONAL WEATHER SERVICE LITTLE ROCK AR
600 PM CDT SUN SEP 25 2016

NOTE: "FAIR" INDICATES FEW OR NO CLOUDS BELOW 12,000 FEET WITH NO
SIGNIFICANT WEATHER AND/OR OBSTRUCTIONS TO VISIBILITY.

ARZ001-003-010-029-260000-
NORTHWEST ARKANSAS

CITY           SKY/WX    TMP DP  RH WIND       PRES   REMARKS
FAYETTEVILLE   HVY RAIN  74  71  91 W8        30.08R FOG
FORT SMITH     PTSUNNY   89  65  44 NW10G16   29.99R HX  91
HARRISON       MOSUNNY   82  66  58 CALM      30.04R
BENTONVILLE    MOSUNNY   75  64  69 NW9       30.09R
ROGERS         CLOUDY    74  71  91 NW8       30.09R
SILOAM SPGS    CLOUDY   N/A N/A N/A NW18        N/A
HIGHFILL       PTSUNNY   76  70  82 NW14      30.08R
SPRINGDALE     MOSUNNY   77  72  83 N10       30.08R
$$

ARZ004-005-016-260000-
NORTH CENTRAL ARKANSAS

CITY           SKY/WX    TMP DP  RH WIND       PRES   REMARKS
BATESVILLE     CLOUDY    84  70  61 CALM      29.99R HX  88
FLIPPIN        SUNNY     88  64  45 S5        29.99R HX  89
MTN HOME       SUNNY     85  68  56 CALM      30.01S HX  88
$$

ARZ040-041-260000-
WEST CENTRAL ARKANSAS

CITY           SKY/WX    TMP DP  RH WIND       PRES   REMARKS
MENA           SUNNY     86  72  62 CALM      30.03S HX  92
MOUNT IDA      SUNNY     84  69  60 CALM      30.00R HX  88
$$

ARZ009-017-025-026-028-260000-
NORTHEAST ARKANSAS

CITY           SKY/WX    TMP DP  RH WIND       PRES   REMARKS
CORNING          N/A     86  73  66 W5        29.98R HX  93
JONESBORO      MOSUNNY   91  69  48 N5        29.96S HX  96
NEWPORT        CLOUDY    86  70  58 W5        29.98R HX  90
WALNUT RIDGE   MOSUNNY   84  68  58 N6        29.97R HX  87
BLYTHEVILLE    CLEAR     92  66  42 S3        29.97R HX  94
$$

ARZ022-023-033-042-044-260000-
CENTRAL ARKANSAS

CITY           SKY/WX    TMP DP  RH WIND       PRES   REMARKS
LITTLE ROCK    MOSUNNY   92  65  40 SW6       29.97F HX  94
JACKSONVILLE   MOSUNNY   90  71  54 NW3       29.97F HX  96
SEARCY         SUNNY     89  72  56 CALM      29.99R HX  96
HOT SPRINGS    SUNNY     88  68  51 S3        29.99S HX  91
RUSSELLVILLE   SUNNY     88  69  53 CALM      29.98S HX  92
$$

ARZ036-260000-
EAST ARKANSAS

CITY           SKY/WX    TMP DP  RH WIND       PRES   REMARKS
WEST MEMPHIS   CLEAR     82  65  56 NW3       29.95S HAZE
$$

ARZ050-053-066-070-073-260000-
SOUTHWEST ARKANSAS

CITY           SKY/WX    TMP DP  RH WIND       PRES   REMARKS
ARKADELPHIA    FAIR      89  74  60 CALM      29.98S HX  98
TEXARKANA      SUNNY     87  66  49 S5        29.99R HX  89
EL DORADO      SUNNY     88  70  55 CALM      29.98S HX  93
DE QUEEN       SUNNY     89  66  46 CALM      29.98R HX  91
$$

ARZ056-057-069-260000-
SOUTHEAST ARKANSAS

CITY           SKY/WX    TMP DP  RH WIND       PRES   REMARKS
PINE BLUFF     CLOUDY    89  69  51 NW7       29.97S HX  93
STUTTGART      SUNNY     90  64  43 W6        29.98R HX  91
MONTICELLO     SUNNY     87  70  56 W3        29.96S HX  92

$$






USA.gov is the U.S. government's official web portal to all federal, state and local government web resources and services.